Regional Weather Roundup
Issued by NWS Charleston, WV

Home | Current Version | Previous Version | Text Only | Print | Product List | Glossary Off
Versions: 1 2 3 4 5 6 7 8 9 10 11 12 13 14 15 16 17 18 19 20 21 22 23 24 25 26 27 28 29 30 31 32 33 34 35 36 37 38 39 40 41 42 43 44 45 46 47 48 49 50

000
ASUS41 KRLX 211710
RWRRLX
West Virginia Regional Weather Roundup
National Weather Service Charleston WV
100 PM EDT SUN SEP 21 2014

Note: "fair" indicates few or no clouds below 12,000 feet with no
significant weather and/or obstructions to visibility.

WVZ003-211800-
Northern Panhandle of West Virginia

CITY           SKY/WX    TMP DP  RH WIND       PRES   REMARKS
WHEELING       PTSUNNY   76  65  68 SW12G23   29.75F
$$

WVZ009-211800-
Northwest West Virginia

CITY           SKY/WX    TMP DP  RH WIND       PRES   REMARKS
PARKERSBURG    MOSUNNY   77  65  66 SW12G18   29.82F
$$

WVZ006-211800-
Western West Virginia

CITY           SKY/WX    TMP DP  RH WIND       PRES   REMARKS
HUNTINGTON     PTSUNNY   75  67  76 SW12      29.84F
$$

WVZ015-211800-
West Central West Virginia

CITY           SKY/WX    TMP DP  RH WIND       PRES   REMARKS
CHARLESTON     CLOUDY    72  66  81 SW13      29.85F
$$

WVZ031-211800-
North Central West Virginia

CITY           SKY/WX    TMP DP  RH WIND       PRES   REMARKS
CLARKSBURG     CLOUDY    71  66  84 SW13      29.81F
MORGANTOWN     CLOUDY    72  64  76 SW6       29.81F
$$

WVZ035-042-045-211800-
South Central West Virginia

CITY           SKY/WX    TMP DP  RH WIND       PRES   REMARKS
BECKLEY        PTSUNNY   71  63  75 W9        29.95F
BLUEFIELD      PTSUNNY   75  62  64 W10G18    29.97F
LEWISBURG      SUNNY     78  63  60 W9G17     29.91F
$$

WVZ047-211800-
Northern Mountains of West Virginia

CITY           SKY/WX    TMP DP  RH WIND       PRES   REMARKS
ELKINS         SUNNY     77  64  64 W17G26    29.85F
$$

WVZ052-211800-
Eastern Panhandle of West Virginia

CITY           SKY/WX    TMP DP  RH WIND       PRES   REMARKS
MARTINSBURG    SUNNY     83  59  44 VRB3      29.78F
PETERSBURG     MOSUNNY   83  55  37 W7        29.79F
$$



USA.gov is the U.S. government's official web portal to all federal, state and local government web resources and services.